Terminal Aerodrome Forecast
Issued by NWS Houston/Galveston, TX

Home | Current Version | Previous Version | Text Only | Print | Product List | Glossary On
Versions: 1 2 3 4 5 6 7 8 9 10 11 12 13 14 15 16 17 18 19 20 21 22 23 24 25 26 27 28 29 30
000
FTUS44 KHGX 242327
TAFGLS
TAF
KGLS 242327Z 2500/2524 00000KT P6SM SKC
     FM250100 19007KT P6SM SCT250
     FM251100 24007KT P6SM VCSH SCT030
     FM251700 18007KT P6SM FEW250=

USA.gov is the U.S. government's official web portal to all federal, state and local government web resources and services.